Nogales, AZ

1:42 AM MST on May 26, 2017 (GMT -0700)
Nogales International

Weather History for KOLS - September, 2013

Change the Weather History Date:

Friday, September 6, 2013

  Actual Average (KFHU) Record (KFHU)
Temperature  
Mean Temperature 78 °F -  
Max Temperature 91 °F 86 °F 95 °F (1986)
Min Temperature 64 °F 67 °F 53 °F (1984)
Cooling Degree Days 12    
Growing Degree Days 28 (Base 50)    
Moisture  
Dew Point 58 °F    
Average Humidity 56    
Maximum Humidity 81    
Minimum Humidity 27    
Precipitation  
Precipitation 0.05 in - - ()
Sea Level Pressure  
Sea Level Pressure 29.94 in    
Wind  
Wind Speed 4 mph (ESE)    
Max Wind Speed 15 mph    
Max Gust Speed 30 mph    
Visibility 10 miles    
Events Rain , Thunderstorm    
Averages and records for this station are not official NWS values.
T = Trace of Precipitation, MM = Missing Value Source: NWS Daily Summary

Daily Weather History Graph

Daily Weather History Graph

Search for Another Location

Airport or City:

Trip Planner

Search our weather history database for the weather conditions in past years. The results will help you decide how hot, cold, wet, or windy it might be!

Date:

Astronomy

Sep. 06, 2013 Rise Set
Actual Time 6:02 AM MST 6:40 PM MST
Civil Twilight 5:37 AM MST 7:04 PM MST
Nautical Twilight 5:08 AM MST 7:33 PM MST
Astronomical Twilight 4:39 AM MST 8:03 PM MST
Moon 7:10 AM MST (9/6) 7:16 PM MST (9/6)
Length of Visible Light 13h 27m
Length of Day
12h 37m
New Moon, 2% of the Moon is Illuminated
Sep 6
New Moon
Sep 12
First Quarter
Sep 19
Full
Sep 26
Last Quarter
Oct 4
New

Hourly Weather History & Observations

Time (MST) Temp. Heat Index Dew Point Humidity Pressure Visibility Wind Dir Wind Speed Gust Speed Precip Events Conditions
12:54 AM 69.1 °F - 55.9 °F 63% 29.88 in 10.0 mi Calm Calm - N/A   Clear
1:54 AM 68.0 °F - 55.0 °F 63% 29.88 in 10.0 mi NNE 5.8 mph - N/A   Clear
2:54 AM 66.0 °F - 55.9 °F 70% 29.88 in 10.0 mi East 3.5 mph - N/A   Clear
3:54 AM 66.0 °F - 55.9 °F 70% 29.87 in 10.0 mi Calm Calm - N/A   Clear
4:54 AM 64.9 °F - 55.9 °F 73% 29.88 in 10.0 mi Calm Calm - N/A   Clear
5:54 AM 64.9 °F - 57.0 °F 75% 29.90 in 10.0 mi Calm Calm - N/A   Clear
6:54 AM 66.9 °F - 59.0 °F 76% 29.92 in 10.0 mi ENE 3.5 mph - N/A   Clear
7:54 AM 71.1 °F - 59.0 °F 66% 29.93 in 10.0 mi SSW 3.5 mph - N/A   Clear
8:54 AM 77.0 °F - 57.9 °F 52% 29.93 in 10.0 mi Calm Calm - N/A   Clear
9:54 AM 84.9 °F 83.7 °F 55.9 °F 37% 29.91 in 10.0 mi Calm Calm - N/A   Clear
10:54 AM 89.1 °F 86.9 °F 54.0 °F 30% 29.89 in 10.0 mi Calm Calm - N/A   Clear
11:54 AM 91.0 °F 88.5 °F 53.1 °F 27% 29.87 in 10.0 mi Calm Calm - N/A   Clear
12:54 PM 89.1 °F 86.7 °F 53.1 °F 29% 29.86 in 10.0 mi WNW 5.8 mph - N/A Thunderstorm Thunderstorm
1:15 PM 89.1 °F - 52.0 °F 28% 30.06 in 10.0 mi Calm Calm - 0.00 in Rain , Thunderstorm Light Rain
1:37 PM 91.0 °F 89.2 °F 55.9 °F 30% 30.05 in 10.0 mi South 12.7 mph - 0.00 in Thunderstorm Thunderstorm
1:54 PM 84.0 °F 82.6 °F 54.0 °F 35% 29.85 in 10.0 mi SE 15.0 mph 29.9 mph 0.00 in Thunderstorm Thunderstorm
2:34 PM 73.0 °F - 60.1 °F 64% 30.07 in 5.0 mi East 11.5 mph 24.2 mph 0.02 in Rain , Thunderstorm Light Thunderstorms and Rain
2:54 PM 71.1 °F - 61.0 °F 70% 29.90 in 10.0 mi East 8.1 mph - 0.02 in Rain , Thunderstorm Light Thunderstorms and Rain
3:17 PM 73.0 °F - 61.0 °F 66% 30.03 in 10.0 mi NE 6.9 mph - 0.00 in Thunderstorm Mostly Cloudy
3:28 PM 75.0 °F - 60.1 °F 60% 30.02 in 10.0 mi NNE 4.6 mph - 0.00 in Rain Light Rain
3:54 PM 75.9 °F - 61.0 °F 60% 29.84 in 10.0 mi NNE 10.4 mph - 0.00 in   Partly Cloudy
4:54 PM 82.0 °F 82.1 °F 59.0 °F 45% 29.82 in 10.0 mi ENE 6.9 mph - N/A   Clear
5:54 PM 75.9 °F - 61.0 °F 60% 29.85 in 10.0 mi SSE 3.5 mph - N/A   Scattered Clouds
6:49 PM 80.6 °F 80.8 °F 57.2 °F 45% 30.06 in 10.0 mi SSE 8.1 mph 19.6 mph N/A Thunderstorm Overcast
6:54 PM 79.0 °F - 57.0 °F 47% 29.88 in 10.0 mi SE 5.8 mph - N/A Thunderstorm Overcast
7:05 PM 75.9 °F - 57.9 °F 54% 30.06 in 10.0 mi SSW 9.2 mph - N/A Thunderstorm Thunderstorm
7:42 PM 73.9 °F - 57.9 °F 57% 30.07 in 10.0 mi SSE 4.6 mph - N/A   Overcast
7:54 PM 73.9 °F - 59.0 °F 59% 29.90 in 10.0 mi SE 5.8 mph - 0.00 in Rain Light Rain
8:54 PM 72.0 °F - 59.0 °F 64% 29.88 in 10.0 mi Variable 4.6 mph - 0.02 in   Overcast
9:54 PM 72.0 °F - 57.9 °F 61% 29.90 in 10.0 mi Variable 5.8 mph - 0.00 in   Mostly Cloudy
10:54 PM 70.0 °F - 61.0 °F 73% 29.91 in 10.0 mi SSW 5.8 mph - N/A   Mostly Cloudy
11:46 PM 70.0 °F - 61.0 °F 73% 30.17 in 9.0 mi ESE 9.2 mph - N/A Thunderstorm Overcast
11:54 PM 68.0 °F - 62.1 °F 81% 29.95 in 6.0 mi SSE 4.6 mph - 0.01 in Rain , Thunderstorm Rain